Temperature
20 21 21 20 20 20 18 18 16 16 15 13 13 13 14 14 14 14 13 13 13 13 12 12 12 12 12 11 11 11 11 11 10 10 10 10 10 9 9 9 9 9 9 9
19 21 20 19 19 19 18 17 17 15 14 14 14 14 14 14 14 13 13 13 13 13 12 12 12 12 12 11 11 11 11 10 10 10 10 10 9 9 9 9 9 9 9 9
18 19 19 16 17 17 17 16 15 13 13 12 12 13 13 14 13 13 13 13 12 12 12 12 12 11 11 11 11 11 10 10 10 10 10 9 9 9 9 8 8 9 9 9
17 18 18 17 18 18 17 15 14 14 13 13 13 13 13 13 13 13 12 12 12 11 11 11 11 10 10 10 10 10 10 10 10 9 9 9 9 8 8 8 8 8 8 8
16 18 18 18 18 18 17 14 14 13 12 13 13 12 12 13 12 12 12 11 11 10 10 9 9 9 8 8 8 8 8 8 8 8 8 8 8 8 8 8 7 7 8 8
17 18 17 17 17 18 17 14 13 13 12 12 12 9 10 12 12 11 10 10 9 9 8 8 7 7 6 6 6 6 6 6 6 7 7 7 7 7 7 7 7 7 7 7
16 17 16 16 17 15 13 12 14 14 13 12 11 10 12 11 11 10 9 9 8 7 6 6 6 5 5 5 5 5 5 5 5 5 5 5 6 6 6 6 6 6 6 7
15 16 15 16 15 14 13 14 14 13 13 12 12 12 11 10 10 9 8 7 7 6 5 5 5 4 4 4 4 4 4 4 4 4 4 4 5 5 5 5 5 6 6 6
14 14 15 16 15 15 15 14 13 13 12 12 11 11 10 9 9 8 7 6 6 5 5 5 4 4 4 4 4 4 4 4 4 4 4 4 4 4 4 5 5 5 6 6
15 15 16 15 15 15 14 13 13 12 12 11 11 10 9 9 8 7 6 6 5 5 4 4 4 4 4 4 4 4 4 4 4 4 4 4 4 4 4 4 5 5 5 6
15 15 16 15 15 14 14 13 13 12 11 11 10 9 8 8 7 6 6 5 5 4 4 4 5 5 5 5 4 4 4 4 4 4 4 4 4 4 4 4 5 5 5 6
14 15 14 15 14 14 13 13 12 11 11 10 9 9 8 7 7 6 5 5 5 5 5 5 5 5 5 5 5 4 4 4 4 4 4 4 4 4 4 4 5 5 5 5
17 16 15 15 14 13 13 12 11 11 10 9 9 8 7 7 6 6 5 5 5 5 5 5 5 5 5 5 5 5 5 4 4 4 4 4 4 4 5 5 5 5 5 5
16 16 15 14 14 13 13 12 11 10 10 9 8 8 7 6 6 6 5 5 5 5 6 6 6 6 6 6 5 5 5 5 5 5 5 5 5 5 5 5 5 5 5 6
16 16 15 14 14 13 12 11 10 10 9 8 8 7 7 6 6 6 6 5 6 6 6 6 6 6 6 6 6 6 5 5 5 5 5 5 5 5 5 5 5 5 5 6
16 15 15 14 13 12 12 11 10 9 9 8 8 7 7 6 6 6 6 6 6 6 6 6 6 6 6 6 6 6 6 6 6 5 5 5 5 5 5 6 6 6 6 6
16 15 14 13 13 12 11 10 10 9 8 8 7 7 7 7 7 7 7 6 6 6 6 6 6 7 7 7 6 6 6 6 6 6 6 6 6 6 6 6 6 6 6 6
16 15 14 14 13 12 11 10 9 9 8 8 7 7 7 6 6 6 6 7 7 8 7 7 7 7 7 7 7 6 6 6 6 6 6 6 6 6 6 6 6 6 6 6
15 15 14 13 13 12 11 10 9 9 8 8 7 7 7 6 6 6 7 7 7 7 7 8 8 8 8 8 7 7 7 6 6 6 6 6 6 6 6 7 6 6 6 6
15 14 14 13 12 11 10 10 9 9 8 8 7 7 7 6 6 6 7 7 6 6 7 8 8 8 8 8 8 8 7 7 7 6 6 6 6 7 7 7 7 7 6 6
15 14 14 13 12 11 10 9 9 9 8 8 7 7 6 6 6 6 6 7 8 8 8 8 8 8 8 9 8 8 8 7 7 7 6 6 6 6 6 7 7 7 7 7
15 14 13 13 12 11 10 9 9 8 8 7 7 7 6 6 6 6 6 6 7 7 8 8 8 8 9 9 9 9 8 8 7 7 7 7 6 6 6 6 6 7 7 7
15 14 13 12 12 11 10 9 9 8 8 7 7 6 6 5 5 5 6 6 7 7 8 8 8 9 9 9 9 9 9 8 8 8 8 7 7 7 7 7 7 7 7 7
14 14 13 12 12 11 10 9 9 8 8 7 7 6 6 5 6 6 6 6 7 7 8 8 9 9 10 10 10 10 10 9 9 9 8 8 8 8 7 7 7 7 8 8
14 14 13 12 12 11 10 10 9 8 7 7 6 6 5 5 5 6 6 6 7 7 8 9 9 9 10 10 10 10 10 10 10 10 9 9 9 9 9 8 8 8 8 8
14 14 13 13 12 11 10 10 9 8 7 7 6 6 6 6 5 6 6 6 6 7 7 8 9 9 9 9 10 10 10 10 11 10 10 10 10 10 9 9 9 9 9 10
14 14 13 13 12 11 10 10 9 8 7 7 6 6 5 5 5 5 5 6 6 6 6 7 8 8 9 9 9 10 10 10 11 11 11 11 11 10 10 10 10 10 10 10
Wind_Speed
3 2 8 10 9 10 9 6 3 3 2 4 6 6 7 9 11 9 7 8 10 10 10 10 11 11 11 11 11 11 10 11 12 12 11 11 11 11 11 11 12 11 10 10
6 8 12 11 11 9 7 6 4 3 1 5 7 6 9 11 12 10 10 12 12 12 12 12 12 13 12 12 12 11 11 11 12 11 11 11 11 11 10 11 11 10 11 11
5 5 4 6 7 6 4 5 4 3 5 8 8 10 11 11 10 11 14 15 15 14 14 14 14 14 13 14 12 11 12 12 12 11 11 11 11 9 10 10 10 10 11 11
2 7 4 3 2 5 4 5 4 2 6 7 9 10 9 10 11 14 15 15 15 14 14 13 13 13 13 12 12 12 12 12 12 12 11 11 10 9 9 8 8 9 11 11
3 2 2 0 4 4 2 3 3 5 8 10 9 8 7 10 11 14 15 15 14 13 15 13 13 13 14 13 13 12 12 11 11 11 11 10 10 9 8 7 8 8 8 10
3 1 3 3 5 6 2 2 3 7 9 9 10 10 8 11 12 12 12 11 11 12 12 13 13 13 14 15 14 14 13 12 11 10 10 10 9 9 8 8 9 9 10 10
3 1 2 3 5 5 5 7 8 6 8 8 7 8 12 14 12 11 11 11 11 12 13 14 15 15 15 16 16 16 15 14 14 12 11 10 9 8 8 8 8 9 10 9
2 2 5 4 4 3 5 6 6 6 7 8 9 11 11 12 12 13 12 12 13 14 15 15 15 15 17 17 17 16 16 16 15 13 12 12 8 8 8 8 8 9 8 8
6 5 5 2 4 4 4 3 5 6 8 8 10 10 11 10 12 12 13 14 14 16 18 17 15 15 18 18 17 17 16 15 15 14 12 10 10 10 9 8 8 8 7 7
3 4 5 4 2 1 1 2 5 6 7 9 9 11 11 11 11 13 13 15 16 18 19 19 18 17 17 17 16 15 15 14 12 11 11 10 9 8 8 7 7 7 7 7
2 2 2 3 3 2 3 5 7 7 7 9 9 9 9 10 12 13 14 15 16 18 19 20 20 19 17 16 14 14 13 12 10 9 9 8 8 7 8 8 8 8 7 6
5 6 4 4 3 3 5 6 7 8 9 9 7 9 10 11 11 13 17 17 18 19 19 19 19 18 17 15 13 12 11 10 8 7 7 6 6 6 9 10 11 13 10 7
7 6 6 3 2 3 4 6 7 7 8 8 8 8 9 11 12 15 16 18 18 19 19 18 18 17 16 14 13 11 10 10 7 6 5 5 4 4 3 1 2 6 8 8
8 7 4 3 2 2 4 6 6 7 7 7 7 8 10 11 14 16 17 17 17 18 17 17 17 17 16 14 12 11 10 9 8 5 5 4 4 3 1 2 2 2 2 3
7 7 6 5 3 4 4 5 6 7 7 8 8 9 11 13 15 16 16 16 17 17 17 17 17 17 17 14 12 11 9 7 6 5 5 4 3 1 1 3 4 4 4 4
8 7 7 5 3 3 4 5 5 7 7 7 8 10 12 13 14 14 14 15 17 18 18 17 18 18 17 14 11 9 8 11 8 5 4 3 2 2 3 3 4 5 5 5
8 6 5 3 2 1 2 3 4 5 6 8 9 10 12 13 14 16 17 17 16 16 15 16 18 19 17 13 10 7 6 8 9 5 4 4 3 2 2 3 4 4 4 5
9 8 8 7 4 1 2 4 4 5 6 7 9 10 11 12 14 15 16 17 17 17 17 18 20 20 16 13 9 6 5 4 4 4 4 4 3 3 2 3 4 5 4 4
9 9 9 8 6 3 0 2 4 5 6 7 8 10 10 10 11 13 14 15 16 18 20 22 25 19 16 14 12 5 5 4 3 2 2 4 4 3 3 4 5 5 5 5
9 9 9 7 6 3 0 3 4 5 6 7 8 9 10 12 12 13 14 12 10 13 18 21 20 16 16 14 13 5 4 3 2 1 1 2 2 3 3 4 4 4 4 4
10 9 9 7 4 2 1 3 3 4 6 7 7 8 9 10 10 11 12 13 15 17 20 20 16 16 15 14 11 5 4 2 1 1 0 1 2 2 3 3 4 3 3 3
9 8 8 7 5 2 3 3 2 4 5 6 7 8 9 10 11 10 9 9 13 19 17 13 14 20 22 16 9 7 5 3 1 1 0 1 2 2 2 3 3 3 3 3
8 8 8 7 6 4 2 2 2 2 3 5 6 8 8 8 7 10 12 12 13 19 15 13 20 26 22 13 11 10 8 6 3 1 0 1 2 2 2 3 3 3 3 3
8 8 8 7 5 3 2 2 1 1 2 3 5 6 6 6 7 6 7 13 17 18 13 15 21 24 18 12 11 11 10 9 6 3 1 1 1 2 3 3 3 3 3 3
9 9 7 7 5 4 4 3 1 2 2 3 5 6 5 4 6 9 10 12 16 16 13 15 20 20 15 12 13 12 11 11 9 7 4 2 1 2 2 3 4 4 4 4
9 8 7 7 6 5 5 3 2 1 1 2 4 4 5 5 7 8 8 11 13 15 13 12 13 14 13 13 13 13 12 12 12 10 8 5 3 2 2 2 4 4 4 4
8 7 5 5 5 6 5 4 3 2 2 2 2 4 5 6 7 8 10 10 11 11 11 11 11 12 12 12 12 12 12 11 11 11 11 8 6 5 3 2 2 2 3 4
Wind_Direction
299 51 85 76 61 64 71 74 82 332 94 356 337 327 317 314 313 316 314 305 296 284 275 269 265 261 256 254 253 251 246 244 244 245 245 247 250 251 251 250 251 249 250 253
11 82 95 70 46 46 47 37 17 40 82 306 307 318 321 320 319 313 305 304 300 293 285 279 273 269 264 259 256 248 239 237 236 235 237 239 243 247 250 251 251 248 246 248
336 320 79 33 29 51 31 29 65 45 305 307 320 321 312 311 310 304 307 307 303 297 289 286 284 278 274 268 260 249 242 240 233 228 227 229 235 237 241 247 250 250 249 246
5 24 26 239 92 75 90 95 67 3 301 303 302 297 291 297 301 305 305 305 302 300 298 296 294 294 290 285 275 265 258 251 240 229 226 224 223 226 232 236 241 246 248 245
76 11 202 318 12 357 299 175 54 354 330 321 309 307 290 282 293 298 301 305 309 310 312 314 315 315 313 308 300 292 285 273 259 245 234 224 220 223 227 233 241 243 243 240
73 7 258 260 321 312 330 264 342 353 331 320 335 334 306 303 305 305 309 313 318 321 321 322 321 322 320 315 310 303 300 293 280 264 249 235 226 226 228 230 238 244 245 237
57 310 275 299 322 35 56 281 299 313 317 319 316 288 295 311 315 316 316 318 321 321 320 316 314 313 310 307 303 301 300 297 292 279 264 250 239 237 237 238 239 240 242 239
89 5 275 325 49 73 247 260 291 304 307 305 298 296 305 313 316 321 322 320 322 323 320 316 313 311 308 303 300 298 296 292 288 281 273 271 252 244 242 240 240 239 237 238
177 205 215 120 142 200 217 274 295 299 304 308 313 312 318 318 321 323 321 322 325 323 321 319 315 311 307 304 303 300 295 291 287 282 274 265 257 252 250 241 237 235 227 228
115 151 166 146 133 35 38 335 317 315 316 324 322 321 324 323 324 325 325 326 328 326 325 324 322 317 309 307 307 303 299 295 290 284 277 269 260 251 247 241 232 226 221 220
146 174 160 349 357 24 28 4 346 334 326 328 329 327 325 326 326 327 328 328 328 328 326 323 322 319 317 316 313 309 305 301 296 286 278 272 263 252 245 238 226 214 211 201
207 218 186 255 296 56 32 355 337 336 333 332 335 326 328 327 326 328 329 329 329 327 325 323 322 321 320 319 316 312 311 309 303 296 288 278 274 274 251 239 233 223 212 194
166 175 174 194 86 52 22 350 340 340 335 334 329 326 327 326 326 328 328 330 328 325 323 322 323 322 322 321 321 317 313 313 310 305 298 293 285 279 285 291 216 207 200 195
159 150 139 138 139 36 18 351 346 341 335 330 324 325 327 325 327 330 330 328 325 323 323 324 325 324 324 323 322 321 318 319 321 310 305 299 294 284 237 153 118 85 97 151
161 151 155 146 97 36 10 354 350 336 330 328 326 326 327 328 328 327 326 327 327 327 327 328 328 326 327 325 324 324 323 318 317 318 318 314 314 329 108 129 125 119 102 83
151 134 125 111 80 25 0 354 341 327 326 325 324 323 323 324 322 323 328 332 332 329 328 330 331 328 327 324 325 327 327 335 343 336 340 351 15 57 85 112 122 127 132 133
149 156 151 145 131 36 350 333 326 320 319 320 317 316 321 326 330 333 335 334 329 324 326 332 332 330 327 324 325 326 330 340 354 356 359 8 36 69 97 115 126 132 141 155
161 167 165 157 156 138 351 340 330 320 311 309 314 319 325 329 329 329 330 331 332 335 338 337 333 330 326 328 328 322 327 334 344 354 7 23 39 60 94 111 126 129 130 141
151 150 146 140 137 130 93 315 308 305 306 312 319 321 318 318 321 325 330 334 339 341 338 334 329 331 331 331 333 318 322 327 337 350 7 30 42 53 82 103 113 124 130 132
151 147 143 137 128 125 154 295 305 307 306 312 321 324 326 329 332 332 333 332 334 334 330 330 332 335 336 334 334 322 319 322 333 336 7 35 47 56 76 97 108 116 124 128
155 153 148 143 140 140 264 299 304 304 307 320 326 322 320 322 327 333 337 339 338 338 336 332 338 341 340 335 330 333 332 329 342 2 38 90 100 97 96 101 110 118 125 125
163 160 157 155 160 200 264 279 289 308 323 330 330 327 330 332 336 337 332 329 330 334 338 337 341 339 342 342 352 351 353 354 353 20 102 138 138 140 140 136 134 132 126 125
171 169 165 169 179 204 250 269 302 325 336 337 335 333 332 329 335 342 341 338 338 335 338 338 338 340 345 358 4 5 5 3 360 358 13 150 157 164 163 160 157 150 144 143
176 175 176 179 173 171 208 247 284 331 0 348 337 335 336 338 338 339 330 331 338 337 341 338 340 346 355 6 7 8 8 6 2 358 5 53 131 147 155 158 160 163 167 169
179 175 174 173 181 191 191 179 97 34 30 353 340 345 347 352 343 339 340 341 343 345 346 345 347 352 3 7 7 7 6 5 3 4 7 14 59 126 147 156 164 170 176 182
180 182 185 188 182 170 163 150 132 107 70 2 347 349 352 351 346 346 347 346 347 347 351 353 354 358 4 5 6 7 8 5 6 7 5 7 17 52 106 130 145 156 166 176
188 186 174 161 153 152 151 148 143 142 134 82 27 1 359 354 353 353 353 354 354 355 355 356 358 2 5 6 7 7 9 9 7 4 4 6 11 19 33 72 102 120 136 147
Height
1508 1503 1504 1508 1509 1509 1514 1518 1526 1525 1525 1526 1521 1518 1515 1511 1506 1501 1497 1493 1489 1484 1479 1474 1469 1465 1460 1456 1453 1449 1446 1443 1441 1439 1437 1435 1433 1432 1430 1429 1428 1428 1427 1426
1514 1508 1509 1514 1514 1514 1515 1518 1520 1522 1525 1521 1518 1514 1510 1505 1500 1495 1491 1486 1481 1476 1471 1465 1460 1455 1450 1446 1443 1440 1436 1433 1431 1429 1428 1426 1425 1423 1422 1421 1420 1420 1419 1419
1523 1513 1512 1528 1522 1521 1521 1522 1524 1528 1526 1519 1515 1511 1506 1501 1496 1492 1486 1480 1474 1468 1462 1456 1451 1446 1440 1436 1432 1429 1425 1423 1421 1419 1417 1416 1415 1414 1413 1413 1412 1411 1411 1411
1526 1524 1532 1529 1517 1518 1521 1524 1523 1522 1521 1517 1513 1508 1504 1499 1494 1487 1481 1474 1468 1461 1455 1449 1443 1437 1431 1426 1421 1418 1414 1412 1410 1408 1406 1406 1405 1405 1404 1404 1404 1403 1403 1403
1531 1531 1528 1523 1519 1518 1520 1523 1522 1519 1516 1512 1507 1502 1498 1495 1490 1484 1477 1470 1463 1456 1449 1441 1435 1428 1422 1416 1411 1407 1403 1400 1398 1396 1395 1394 1393 1394 1394 1394 1394 1394 1394 1395
1529 1531 1533 1528 1519 1515 1516 1521 1518 1516 1512 1507 1502 1501 1494 1489 1484 1477 1471 1464 1457 1449 1442 1434 1427 1420 1413 1407 1401 1396 1392 1388 1386 1384 1382 1381 1381 1382 1383 1383 1383 1384 1385 1386
1531 1532 1529 1523 1518 1517 1529 1528 1517 1514 1510 1506 1502 1499 1490 1483 1478 1472 1465 1458 1451 1443 1435 1427 1419 1412 1404 1398 1391 1386 1381 1377 1373 1371 1370 1369 1369 1370 1371 1372 1372 1374 1375 1376
1532 1536 1534 1520 1519 1523 1525 1517 1515 1511 1507 1503 1499 1493 1486 1480 1473 1466 1459 1451 1444 1435 1427 1419 1412 1404 1396 1389 1383 1377 1371 1366 1362 1360 1359 1358 1358 1358 1360 1361 1362 1364 1366 1368
1526 1528 1521 1519 1519 1519 1517 1515 1512 1508 1504 1499 1493 1488 1482 1475 1469 1462 1454 1446 1437 1429 1420 1413 1405 1398 1389 1381 1374 1367 1362 1357 1353 1350 1348 1347 1347 1348 1349 1350 1352 1354 1357 1359
1519 1519 1518 1518 1517 1516 1514 1511 1508 1504 1500 1495 1490 1484 1478 1471 1464 1457 1448 1440 1432 1423 1415 1406 1399 1391 1384 1375 1368 1361 1355 1350 1346 1342 1340 1339 1338 1339 1340 1341 1343 1346 1349 1352
1517 1516 1516 1515 1514 1512 1510 1507 1504 1500 1497 1492 1487 1481 1475 1467 1460 1452 1444 1436 1428 1419 1411 1402 1394 1386 1379 1371 1363 1356 1351 1345 1341 1337 1334 1333 1332 1332 1333 1334 1337 1340 1343 1347
1516 1513 1513 1513 1511 1509 1506 1504 1501 1497 1493 1489 1484 1478 1471 1464 1456 1449 1440 1432 1424 1416 1407 1399 1391 1383 1375 1368 1361 1354 1348 1342 1338 1334 1331 1329 1328 1328 1329 1330 1332 1336 1339 1343
1507 1509 1509 1509 1508 1506 1504 1501 1498 1494 1490 1486 1481 1475 1468 1461 1453 1446 1437 1429 1421 1412 1404 1396 1388 1380 1373 1366 1359 1353 1347 1341 1337 1333 1330 1329 1327 1327 1327 1329 1330 1333 1337 1340
1505 1505 1505 1505 1504 1502 1500 1498 1495 1491 1487 1483 1477 1471 1465 1458 1450 1443 1434 1426 1418 1410 1402 1394 1386 1379 1372 1365 1359 1353 1347 1342 1337 1334 1331 1329 1328 1327 1327 1328 1330 1333 1336 1340
1502 1501 1502 1501 1500 1499 1497 1494 1491 1487 1484 1479 1474 1468 1462 1454 1447 1440 1432 1424 1416 1408 1400 1392 1385 1377 1371 1364 1358 1353 1347 1343 1338 1335 1332 1330 1329 1329 1329 1330 1332 1334 1337 1340
1499 1499 1498 1497 1497 1495 1493 1491 1488 1484 1480 1476 1471 1465 1459 1452 1445 1437 1430 1422 1414 1405 1398 1390 1383 1376 1370 1363 1358 1353 1348 1344 1340 1337 1335 1333 1332 1332 1332 1333 1335 1336 1338 1341
1495 1495 1494 1494 1493 1492 1490 1488 1485 1482 1478 1473 1469 1463 1457 1450 1442 1435 1427 1420 1413 1405 1397 1390 1382 1375 1369 1363 1358 1353 1349 1346 1343 1340 1338 1336 1335 1335 1336 1336 1338 1339 1341 1342
1491 1491 1491 1490 1490 1488 1487 1485 1482 1479 1475 1471 1466 1461 1454 1448 1441 1434 1427 1419 1411 1404 1397 1389 1381 1374 1367 1362 1358 1354 1350 1348 1345 1343 1341 1340 1339 1339 1339 1340 1341 1342 1343 1345
1488 1488 1488 1487 1486 1485 1484 1482 1479 1477 1473 1469 1464 1458 1453 1447 1440 1433 1426 1419 1411 1403 1396 1389 1381 1374 1368 1362 1358 1354 1351 1349 1347 1346 1345 1344 1343 1343 1343 1344 1344 1345 1347 1348
1485 1485 1485 1484 1483 1482 1481 1479 1477 1474 1470 1466 1462 1456 1450 1444 1438 1431 1425 1419 1413 1406 1398 1391 1383 1376 1369 1364 1360 1355 1352 1350 1348 1347 1347 1346 1346 1346 1347 1347 1348 1349 1350 1351
1481 1481 1481 1481 1480 1479 1478 1476 1474 1471 1468 1464 1460 1454 1449 1443 1437 1431 1424 1417 1412 1406 1399 1392 1385 1379 1372 1367 1362 1358 1354 1351 1349 1348 1347 1347 1348 1349 1349 1350 1351 1352 1353 1355
1477 1477 1477 1477 1476 1475 1474 1473 1471 1469 1466 1462 1458 1453 1447 1441 1435 1430 1425 1419 1413 1407 1400 1394 1388 1382 1376 1370 1366 1361 1358 1355 1352 1350 1349 1349 1349 1349 1351 1352 1353 1355 1356 1358
1473 1473 1473 1473 1472 1472 1471 1470 1469 1466 1463 1460 1456 1451 1446 1441 1435 1429 1423 1418 1413 1407 1402 1396 1391 1385 1380 1374 1370 1366 1362 1359 1356 1354 1353 1352 1351 1351 1352 1353 1354 1356 1359 1361
1469 1469 1469 1469 1469 1469 1468 1467 1466 1464 1461 1458 1455 1450 1445 1439 1434 1429 1424 1419 1413 1408 1403 1398 1393 1388 1383 1378 1374 1370 1367 1364 1361 1359 1357 1356 1355 1355 1355 1355 1357 1358 1361 1364
1464 1465 1465 1465 1465 1465 1465 1464 1463 1461 1459 1456 1453 1448 1444 1439 1433 1428 1423 1418 1413 1408 1403 1399 1395 1390 1386 1382 1378 1375 1372 1369 1366 1364 1363 1362 1361 1360 1360 1360 1361 1362 1364 1366
1459 1460 1460 1460 1461 1461 1461 1461 1460 1458 1456 1453 1450 1446 1442 1437 1432 1427 1422 1418 1413 1408 1404 1400 1396 1392 1388 1385 1382 1378 1376 1373 1371 1369 1368 1367 1366 1366 1365 1365 1366 1367 1368 1371
1455 1455 1455 1455 1456 1457 1457 1457 1456 1455 1453 1451 1448 1445 1441 1436 1431 1426 1422 1418 1413 1409 1405 1401 1397 1394 1391 1388 1385 1382 1380 1377 1375 1373 1372 1371 1371 1371 1371 1371 1372 1373 1374 1376